Regional Weather Roundup
Issued by NWS

Home | Current Version | Previous Version | Graphics & Text | Print | Product List | Glossary On
Versions: 1 2 3 4 5 6 7 8 9 10 11 12 13 14 15 16 17 18 19 20 21 22 23 24 25 26 27 28 29 30 31 32 33 34 35 36 37 38 39 40 41 42 43 44 45 46 47 48 49 50
000
ASUS43 KFSD 242002
RWRSD

WEATHER ROUNDUP FOR SOUTH DAKOTA
NATIONAL WEATHER SERVICE SIOUX FALLS SD
200 PM CST FRI NOV 24 2017

NOTE: "FAIR" INDICATES FEW OR NO CLOUDS BELOW 12,000 FEET WITH NO
SIGNIFICANT WEATHER AND/OR OBSTRUCTIONS TO VISIBILITY.


SDZ001>005-009-010-012>017-242100-
NORTHWEST AND NORTH CENTRAL SOUTH DAKOTA

CITY           SKY/WX    TMP DP  RH WIND       PRES   REMARKS
BUFFALO          N/A     51  35  54 W26G33    29.75
FAITH            N/A     53  33  46 NW24G32   29.75S
MOBRIDGE       SUNNY     57  35  43 NW20G29   29.67R
$$

SDZ012>016-024>037-041>051-057-063-072>074-242100-
SOUTHWEST AND SOUTH CENTRAL SOUTH DAKOTA

CITY           SKY/WX    TMP DP  RH WIND       PRES   REMARKS
RAPID CTY ARPT SUNNY     54  24  31 NW33G41   29.84R
PIERRE         SUNNY     56  37  49 NW25G33   29.72R
CUSTER         SUNNY     46  18  32 VRB7      29.86R
ELLSWORTH AFB  SUNNY     54  24  32 NW28G36   29.83R
PHILIP         MOSUNNY   57  33  40 NW22G31   29.80R
PINE RIDGE     MOSUNNY   53  27  36 N18G28    29.85S
SPEARFISH      FAIR      48  27  43 NW22G32   29.85S
WINNER         FAIR      61  34  36 NW32G40   29.74R
$$

SDZ004>011-016>023-039-040-242100-
NORTHEAST SOUTH DAKOTA

CITY           SKY/WX    TMP DP  RH WIND       PRES   REMARKS
ABERDEEN       SUNNY     55  34  45 NW22G30   29.65R
WATERTOWN      MOSUNNY   49  41  74 NW21G31   29.58R
BROOKINGS      CLOUDY    54  43  66 NW33G39   29.53
SISSETON         N/A     52  40  63 NW28G36   29.55R
$$

SDZ017-020-022-023-036>040-048>070-242100-
SOUTHEAST SOUTH DAKOTA

CITY           SKY/WX    TMP DP  RH WIND       PRES   REMARKS
SIOUX FALLS    PTSUNNY   59  42  53 NW28G38   29.54R
HURON          MOSUNNY   56  38  50 NW22G36   29.65R
CHAMBERLAIN    MOSUNNY   58  39  48 NW26G41   29.71R
MITCHELL       MOSUNNY   59  41  51 NW35G44   29.64R
YANKTON        MOSUNNY   60  39  45 NW33G41   29.61R
$$

ABBREVIATIONS USED IN REMARKS
   TC - TEMPERATURE IN CELSIUS
  WCI - WIND CHILL INDEX
   HX - HEAT INDEX
  VSB - VISIBILITY





USA.gov is the U.S. government's official web portal to all federal, state and local government web resources and services.